• In Uzbekistan
  • List of Countries
  • For 7 days
  • Water Temperature
  • Satellite Maps
  • Weather Map
  • Weather Widgets
  • user-avatar
    Login

    Hourly Weather Fuzhou

    Today, 25 September, Tuesday

    Time Temperature Precipitation Wind Pressure Humidity
    00:00 +23°C° 0 mm 4 mps 758 mmHg 89%
    01:00 +23°C° 0 mm 4 mps 758 mmHg 88%
    02:00 +22°C° 0 mm 4 mps 757 mmHg 88%
    03:00 +22°C° 0 mm 4 mps 757 mmHg 87%
    04:00 +22°C° 0 mm 4 mps 757 mmHg 86%
    05:00 +22°C° 0 mm 4 mps 757 mmHg 85%
    06:00 +23°C° 0 mm 4 mps 758 mmHg 82%
    07:00 +23°C° 0 mm 4 mps 758 mmHg 79%
    08:00 +25°C° 0 mm 4 mps 758 mmHg 76%
    09:00 +26°C° 0 mm 5 mps 758 mmHg 71%
    10:00 +27°C° 0 mm 5 mps 758 mmHg 66%
    11:00 +29°C° 0 mm 5 mps 757 mmHg 61%
    12:00 +29°C° 0 mm 6 mps 757 mmHg 60%
    13:00 +29°C° 0 mm 6 mps 757 mmHg 59%
    14:00 +30°C° 0 mm 6 mps 756 mmHg 58%
    15:00 +29°C° 0 mm 5 mps 756 mmHg 62%
    16:00 +28°C° 0 mm 5 mps 756 mmHg 66%
    17:00 +27°C° 0 mm 4 mps 756 mmHg 70%
    18:00 +26°C° 0 mm 4 mps 756 mmHg 74%
    19:00 +25°C° 0 mm 4 mps 756 mmHg 79%
    20:00 +24°C° 0 mm 3 mps 757 mmHg 83%
    21:00 +24°C° 0 mm 3 mps 757 mmHg 84%
    22:00 +22°C° 0 mm 3 mps 757 mmHg 85%
    23:00 +22°C° 0 mm 3 mps 758 mmHg 86%

    Tomorrow, 26 September, Wednesday

    Time Temperature Precipitation Wind Pressure Humidity
    00:00 +22°C° 0 mm 3 mps 757 mmHg 87%
    01:00 +21°C° 0 mm 3 mps 757 mmHg 87%
    02:00 +21°C° 0 mm 3 mps 757 mmHg 88%
    03:00 +21°C° 0 mm 3 mps 757 mmHg 88%
    04:00 +21°C° 0 mm 3 mps 756 mmHg 88%
    05:00 +20°C° 0 mm 3 mps 756 mmHg 88%
    06:00 +22°C° 0 mm 3 mps 757 mmHg 83%
    07:00 +24°C° 0 mm 3 mps 757 mmHg 78%
    08:00 +25°C° 0 mm 3 mps 757 mmHg 73%
    09:00 +27°C° 0 mm 3 mps 757 mmHg 66%
    10:00 +28°C° 0 mm 3 mps 757 mmHg 59%
    11:00 +30°C° 0 mm 4 mps 757 mmHg 52%
    12:00 +30°C° 0 mm 4 mps 757 mmHg 50%
    13:00 +30°C° 0 mm 4 mps 756 mmHg 48%
    14:00 +32°C° 0 mm 4 mps 756 mmHg 46%
    15:00 +30°C° 0 mm 4 mps 755 mmHg 52%
    16:00 +29°C° 0 mm 3 mps 755 mmHg 57%
    17:00 +28°C° 0 mm 3 mps 755 mmHg 62%
    18:00 +27°C° 0 mm 3 mps 756 mmHg 66%
    19:00 +26°C° 0 mm 3 mps 756 mmHg 70%
    20:00 +24°C° 0 mm 3 mps 757 mmHg 74%
    21:00 +24°C° 0 mm 3 mps 757 mmHg 75%
    22:00 +24°C° 0 mm 3 mps 757 mmHg 77%
    23:00 +22°C° 0 mm 3 mps 757 mmHg 78%

    Day after tomorrow, 27 September, Thursday

    Time Temperature Precipitation Wind Pressure Humidity
    00:00 +22°C° 0 mm 3 mps 757 mmHg 78%
    01:00 +22°C° 0 mm 3 mps 757 mmHg 79%
    02:00 +21°C° 0 mm 3 mps 756 mmHg 79%
    03:00 +21°C° 0 mm 3 mps 756 mmHg 79%
    04:00 +21°C° 0 mm 3 mps 756 mmHg 79%
    05:00 +21°C° 0 mm 2 mps 756 mmHg 80%
    06:00 +22°C° 0 mm 3 mps 756 mmHg 75%
    07:00 +24°C° 0 mm 3 mps 757 mmHg 71%
    08:00 +26°C° 0 mm 3 mps 757 mmHg 67%
    09:00 +27°C° 0 mm 4 mps 757 mmHg 63%
    10:00 +28°C° 0 mm 4 mps 757 mmHg 59%
    11:00 +30°C° 0 mm 5 mps 757 mmHg 55%
    12:00 +30°C° 0 mm 5 mps 756 mmHg 55%
    13:00 +32°C° 0 mm 5 mps 756 mmHg 54%
    14:00 +32°C° 0 mm 5 mps 755 mmHg 53%
    15:00 +30°C° 0 mm 4 mps 755 mmHg 58%
    16:00 +29°C° 0 mm 4 mps 755 mmHg 62%
    17:00 +29°C° 0 mm 4 mps 755 mmHg 67%
    18:00 +27°C° 0 mm 4 mps 756 mmHg 71%
    19:00 +26°C° 0 mm 3 mps 756 mmHg 75%
    20:00 +25°C° 0 mm 3 mps 757 mmHg 79%
    21:00 +25°C° 0 mm 3 mps 757 mmHg 81%
    22:00 +24°C° 0 mm 3 mps 757 mmHg 82%
    23:00 +24°C° 0 mm 3 mps 757 mmHg 83%

    28 September, Friday

    Time Temperature Precipitation Wind Pressure Humidity
    00:00 +22°C° 0 mm 3 mps 757 mmHg 84%
    01:00 +22°C° 0 mm 3 mps 757 mmHg 84%
    02:00 +22°C° 0 mm 3 mps 757 mmHg 85%
    03:00 +21°C° 0 mm 3 mps 757 mmHg 85%
    04:00 +21°C° 0 mm 3 mps 757 mmHg 85%
    05:00 +21°C° 0 mm 2 mps 757 mmHg 85%
    06:00 +22°C° 0 mm 3 mps 757 mmHg 80%
    07:00 +25°C° 0 mm 3 mps 757 mmHg 75%
    08:00 +26°C° 0 mm 3 mps 758 mmHg 70%
    09:00 +28°C° 0 mm 3 mps 758 mmHg 64%
    10:00 +29°C° 0 mm 4 mps 757 mmHg 58%
    11:00 +32°C° 0 mm 4 mps 757 mmHg 52%
    12:00 +32°C° 0 mm 4 mps 756 mmHg 51%
    13:00 +32°C° 0 mm 5 mps 756 mmHg 50%
    14:00 +33°C° 0 mm 5 mps 755 mmHg 49%
    15:00 +32°C° 0 mm 4 mps 755 mmHg 55%
    16:00 +30°C° 0 mm 4 mps 755 mmHg 61%
    17:00 +29°C° 0 mm 3 mps 755 mmHg 67%
    18:00 +28°C° 0 mm 3 mps 755 mmHg 71%
    19:00 +26°C° 0 mm 3 mps 756 mmHg 75%
    20:00 +25°C° 0 mm 3 mps 756 mmHg 79%
    21:00 +25°C° 0 mm 3 mps 756 mmHg 80%
    22:00 +24°C° 0 mm 3 mps 756 mmHg 81%
    23:00 +24°C° 0 mm 3 mps 756 mmHg 83%

    29 September, Saturday

    Time Temperature Precipitation Wind Pressure Humidity
    00:00 +22°C° 0 mm 3 mps 755 mmHg 83%
    01:00 +22°C° 0 mm 3 mps 755 mmHg 83%
    02:00 +22°C° 0 mm 3 mps 754 mmHg 83%
    03:00 +21°C° 0 mm 3 mps 754 mmHg 83%
    04:00 +21°C° 0 mm 3 mps 754 mmHg 82%
    05:00 +21°C° 0 mm 3 mps 753 mmHg 81%
    06:00 +22°C° 0 mm 3 mps 754 mmHg 77%
    07:00 +24°C° 0 mm 3 mps 754 mmHg 73%
    08:00 +26°C° 0 mm 3 mps 754 mmHg 69%
    09:00 +28°C° 0 mm 3 mps 754 mmHg 62%
    10:00 +30°C° 0 mm 3 mps 753 mmHg 56%
    11:00 +33°C° 0 mm 3 mps 753 mmHg 49%
    12:00 +34°C° 0 mm 3 mps 752 mmHg 49%
    13:00 +34°C° 0 mm 3 mps 752 mmHg 49%
    14:00 +35°C° 0 mm 3 mps 751 mmHg 49%
    15:00 +34°C° 0 mm 2 mps 751 mmHg 55%
    16:00 +31°C° 0 mm 2 mps 752 mmHg 61%
    17:00 +30°C° 0 mm 2 mps 752 mmHg 67%
    18:00 +29°C° 0.1 mm 2 mps 753 mmHg 70%
    19:00 +28°C° 0.1 mm 2 mps 753 mmHg 73%
    20:00 +26°C° 0.1 mm 1 mps 754 mmHg 77%
    21:00 +26°C° 0 mm 2 mps 754 mmHg 78%
    22:00 +25°C° 0 mm 2 mps 754 mmHg 78%
    23:00 +24°C° 0 mm 2 mps 755 mmHg 79%

    30 September, Sunday

    Time Temperature Precipitation Wind Pressure Humidity
    00:00 +24°C° 0 mm 2 mps 755 mmHg 79%
    01:00 +23°C° 0 mm 2 mps 754 mmHg 79%
    02:00 +23°C° 0 mm 2 mps 754 mmHg 79%
    03:00 +21°C° 0 mm 2 mps 755 mmHg 80%
    04:00 +21°C° 0 mm 2 mps 755 mmHg 80%
    05:00 +20°C° 0 mm 2 mps 755 mmHg 80%
    06:00 +23°C° 0 mm 2 mps 755 mmHg 76%
    07:00 +24°C° 0 mm 2 mps 756 mmHg 72%
    08:00 +25°C° 0 mm 2 mps 756 mmHg 68%
    09:00 +27°C° 0 mm 2 mps 756 mmHg 59%
    10:00 +30°C° 0 mm 1 mps 756 mmHg 50%
    11:00 +32°C° 0 mm 1 mps 755 mmHg 42%
    12:00 +32°C° 0 mm 2 mps 755 mmHg 41%
    13:00 +34°C° 0 mm 2 mps 755 mmHg 40%
    14:00 +34°C° 0 mm 2 mps 755 mmHg 39%
    15:00 +32°C° 0 mm 2 mps 755 mmHg 45%
    16:00 +30°C° 0 mm 2 mps 755 mmHg 52%
    17:00 +29°C° 0 mm 2 mps 755 mmHg 59%
    18:00 +27°C° 0 mm 2 mps 756 mmHg 63%
    19:00 +26°C° 0 mm 1 mps 756 mmHg 67%
    20:00 +24°C° 0 mm 1 mps 757 mmHg 71%
    21:00 +24°C° 0 mm 1 mps 757 mmHg 71%
    22:00 +23°C° 0 mm 1 mps 758 mmHg 72%
    23:00 +23°C° 0 mm 1 mps 758 mmHg 73%
    Show more